Location: Ab? ar R?sh Ba?r?
(24.1861°N, 32.8847°E)
Time: 23:58:48
(UTC+00:00)

Cosmos 1544 Rocket - Pass Details

Date: 24 October 2021
Orbit: 603 x 632 km, 82.5° (Epoch: 05 December)

Event Time Altitude Azimuth Distance (km) Brightness Sun altitude
Rises 15:36:34 0° 182° (S) 2,902 7.2 -5.8°
Reaches altitude 10° 15:38:47 10° 181° (S) 2,000 6.3 -6.3°
Maximum altitude 15:43:14 81° 95° (E) 641 3.6 -7.3°
Drops below altitude 10° 15:47:42 10° 8° (N) 2,011 6.0 -8.3°
Sets 15:49:56 0° 7° (N) 2,920 6.8 -8.8°
